When you browse on this site, cookies collect data to enhance your experience and personalize the content and advertising you see.
Visit our Privacy Policy to learn more. By continuing to use the site, you agree to this use of cookies and data.
  • In Austria
  • List of Countries
  • For 7 days
  • Water Temperature
  • Satellite Maps
  • Weather Map
  • News
  • Weather Widgets
  • user-avatar
    Login

    Hourly Weather Albany

    Today, 25 March, Monday

    Time Temperature Precipitation Wind Pressure Humidity
    00:00 +13°C° 0 mm 3 mps 763 mmHg 73%
    01:00 +13°C° 0 mm 3 mps 763 mmHg 73%
    02:00 +14°C° 0 mm 2 mps 763 mmHg 74%
    03:00 +13°C° 0 mm 3 mps 763 mmHg 76%
    04:00 +13°C° 0 mm 3 mps 763 mmHg 77%
    05:00 +12°C° 0 mm 3 mps 763 mmHg 79%
    06:00 +13°C° 0 mm 3 mps 764 mmHg 75%
    07:00 +14°C° 0 mm 3 mps 764 mmHg 72%
    08:00 +16°C° 0 mm 3 mps 764 mmHg 67%
    09:00 +17°C° 0 mm 3 mps 764 mmHg 64%
    10:00 +17°C° 0 mm 3 mps 764 mmHg 62%
    11:00 +18°C° 0 mm 3 mps 764 mmHg 59%
    12:00 +19°C° 0 mm 4 mps 764 mmHg 57%
    13:00 +20°C° 0 mm 4 mps 764 mmHg 56%
    14:00 +20°C° 0 mm 5 mps 763 mmHg 54%
    15:00 +20°C° 0 mm 5 mps 763 mmHg 58%
    16:00 +19°C° 0 mm 5 mps 763 mmHg 61%
    17:00 +17°C° 0 mm 5 mps 763 mmHg 65%
    18:00 +16°C° 0 mm 5 mps 763 mmHg 69%
    19:00 +15°C° 0 mm 5 mps 763 mmHg 74%
    20:00 +14°C° 0 mm 4 mps 764 mmHg 79%
    21:00 +14°C° 0 mm 4 mps 764 mmHg 81%
    22:00 +14°C° 0 mm 4 mps 764 mmHg 82%
    23:00 +14°C° 0 mm 4 mps 764 mmHg 84%

    Tomorrow, 26 March, Tuesday

    Time Temperature Precipitation Wind Pressure Humidity
    00:00 +14°C° 0 mm 4 mps 764 mmHg 85%
    01:00 +14°C° 0 mm 4 mps 764 mmHg 86%
    02:00 +14°C° 0 mm 4 mps 763 mmHg 87%
    03:00 +14°C° 0 mm 4 mps 763 mmHg 88%
    04:00 +14°C° 0 mm 4 mps 763 mmHg 89%
    05:00 +14°C° 0 mm 4 mps 763 mmHg 90%
    06:00 +14°C° 0 mm 5 mps 763 mmHg 85%
    07:00 +15°C° 0 mm 5 mps 763 mmHg 81%
    08:00 +16°C° 0 mm 5 mps 763 mmHg 76%
    09:00 +19°C° 0 mm 5 mps 763 mmHg 66%
    10:00 +22°C° 0 mm 5 mps 763 mmHg 57%
    11:00 +25°C° 0 mm 4 mps 762 mmHg 47%
    12:00 +26°C° 0 mm 4 mps 762 mmHg 43%
    13:00 +27°C° 0 mm 4 mps 761 mmHg 39%
    14:00 +29°C° 0 mm 4 mps 760 mmHg 36%
    15:00 +28°C° 0 mm 4 mps 760 mmHg 40%
    16:00 +27°C° 0 mm 4 mps 760 mmHg 44%
    17:00 +26°C° 0 mm 5 mps 759 mmHg 48%
    18:00 +23°C° 0 mm 5 mps 760 mmHg 55%
    19:00 +22°C° 0 mm 5 mps 760 mmHg 61%
    20:00 +20°C° 0 mm 5 mps 760 mmHg 68%
    21:00 +20°C° 0 mm 5 mps 760 mmHg 69%
    22:00 +19°C° 0 mm 4 mps 759 mmHg 70%
    23:00 +19°C° 0 mm 4 mps 759 mmHg 72%

    Day after tomorrow, 27 March, Wednesday

    Time Temperature Precipitation Wind Pressure Humidity
    00:00 +19°C° 0 mm 4 mps 759 mmHg 71%
    01:00 +18°C° 0 mm 3 mps 759 mmHg 70%
    02:00 +18°C° 0 mm 2 mps 758 mmHg 69%
    03:00 +18°C° 0 mm 2 mps 758 mmHg 65%
    04:00 +18°C° 0 mm 2 mps 758 mmHg 60%
    05:00 +18°C° 0 mm 2 mps 757 mmHg 56%
    06:00 +19°C° 0 mm 2 mps 758 mmHg 54%
    07:00 +20°C° 0 mm 3 mps 758 mmHg 52%
    08:00 +21°C° 0 mm 3 mps 758 mmHg 50%
    09:00 +22°C° 0 mm 3 mps 758 mmHg 53%
    10:00 +23°C° 0 mm 4 mps 758 mmHg 56%
    11:00 +25°C° 0 mm 4 mps 759 mmHg 59%
    12:00 +25°C° 0 mm 4 mps 758 mmHg 61%
    13:00 +23°C° 0 mm 5 mps 758 mmHg 63%
    14:00 +23°C° 0 mm 5 mps 758 mmHg 65%
    15:00 +22°C° 0 mm 5 mps 758 mmHg 70%
    16:00 +20°C° 0 mm 5 mps 758 mmHg 74%
    17:00 +19°C° 0 mm 5 mps 759 mmHg 79%
    18:00 +18°C° 0 mm 4 mps 759 mmHg 79%
    19:00 +18°C° 0 mm 4 mps 760 mmHg 79%
    20:00 +17°C° 0 mm 4 mps 760 mmHg 78%
    21:00 +17°C° 0 mm 4 mps 760 mmHg 79%
    22:00 +15°C° 0 mm 4 mps 761 mmHg 79%
    23:00 +16°C° 0 mm 3 mps 761 mmHg 80%

    28 March, Thursday

    Time Temperature Precipitation Wind Pressure Humidity
    00:00 +16°C° 0 mm 3 mps 761 mmHg 79%
    01:00 +16°C° 0 mm 3 mps 761 mmHg 78%
    02:00 +16°C° 0 mm 3 mps 761 mmHg 77%
    03:00 +16°C° 0.1 mm 3 mps 761 mmHg 78%
    04:00 +16°C° 0.1 mm 3 mps 761 mmHg 79%
    05:00 +16°C° 0.1 mm 3 mps 761 mmHg 80%
    06:00 +15°C° 0.1 mm 4 mps 762 mmHg 80%
    07:00 +15°C° 0.1 mm 4 mps 762 mmHg 80%
    08:00 +15°C° 0.1 mm 5 mps 763 mmHg 80%
    09:00 +15°C° 0 mm 5 mps 763 mmHg 76%
    10:00 +16°C° 0 mm 5 mps 763 mmHg 73%
    11:00 +16°C° 0 mm 5 mps 763 mmHg 69%
    12:00 +15°C° 0 mm 5 mps 763 mmHg 70%
    13:00 +15°C° 0 mm 5 mps 763 mmHg 70%
    14:00 +15°C° 0 mm 4 mps 763 mmHg 70%
    15:00 +14°C° 0 mm 5 mps 763 mmHg 70%
    16:00 +14°C° 0 mm 5 mps 763 mmHg 70%
    17:00 +14°C° 0 mm 5 mps 763 mmHg 70%
    18:00 +13°C° 0 mm 5 mps 764 mmHg 71%
    19:00 +13°C° 0 mm 5 mps 765 mmHg 72%
    20:00 +13°C° 0 mm 4 mps 765 mmHg 73%
    21:00 +13°C° 0 mm 4 mps 765 mmHg 74%
    22:00 +12°C° 0 mm 4 mps 766 mmHg 75%
    23:00 +12°C° 0 mm 4 mps 766 mmHg 77%

    29 March, Friday

    Time Temperature Precipitation Wind Pressure Humidity
    00:00 +12°C° 0 mm 4 mps 766 mmHg 77%
    01:00 +12°C° 0 mm 4 mps 765 mmHg 77%
    02:00 +12°C° 0 mm 4 mps 765 mmHg 77%
    03:00 +12°C° 0 mm 4 mps 765 mmHg 78%
    04:00 +12°C° 0 mm 4 mps 765 mmHg 79%
    05:00 +11°C° 0 mm 4 mps 765 mmHg 79%
    06:00 +12°C° 0 mm 4 mps 766 mmHg 75%
    07:00 +13°C° 0 mm 4 mps 766 mmHg 71%
    08:00 +14°C° 0 mm 5 mps 767 mmHg 67%
    09:00 +15°C° 0 mm 5 mps 767 mmHg 64%
    10:00 +16°C° 0 mm 5 mps 767 mmHg 61%
    11:00 +17°C° 0 mm 5 mps 767 mmHg 58%
    12:00 +17°C° 0 mm 5 mps 766 mmHg 58%
    13:00 +17°C° 0 mm 5 mps 766 mmHg 57%
    14:00 +19°C° 0 mm 5 mps 765 mmHg 57%
    15:00 +17°C° 0 mm 5 mps 765 mmHg 60%
    16:00 +16°C° 0 mm 5 mps 765 mmHg 63%
    17:00 +16°C° 0 mm 5 mps 765 mmHg 65%
    18:00 +15°C° 0 mm 5 mps 766 mmHg 70%
    19:00 +14°C° 0 mm 5 mps 766 mmHg 74%
    20:00 +13°C° 0 mm 4 mps 767 mmHg 78%
    21:00 +13°C° 0 mm 4 mps 767 mmHg 79%
    22:00 +13°C° 0 mm 4 mps 766 mmHg 81%
    23:00 +12°C° 0 mm 4 mps 766 mmHg 82%

    30 March, Saturday

    Time Temperature Precipitation Wind Pressure Humidity
    00:00 +12°C° 0 mm 4 mps 766 mmHg 83%
    01:00 +12°C° 0 mm 4 mps 766 mmHg 84%
    02:00 +12°C° 0 mm 4 mps 766 mmHg 85%
    03:00 +12°C° 0 mm 3 mps 766 mmHg 86%
    04:00 +12°C° 0 mm 3 mps 766 mmHg 87%
    05:00 +12°C° 0 mm 3 mps 766 mmHg 87%
    06:00 +13°C° 0 mm 3 mps 766 mmHg 83%
    07:00 +14°C° 0 mm 4 mps 766 mmHg 79%
    08:00 +15°C° 0 mm 4 mps 766 mmHg 75%
    09:00 +18°C° 0 mm 4 mps 766 mmHg 68%
    10:00 +19°C° 0 mm 4 mps 766 mmHg 62%
    11:00 +21°C° 0 mm 4 mps 765 mmHg 55%
    12:00 +21°C° 0 mm 4 mps 765 mmHg 54%
    13:00 +22°C° 0 mm 5 mps 764 mmHg 53%
    14:00 +22°C° 0 mm 5 mps 764 mmHg 52%
    15:00 +21°C° 0 mm 5 mps 764 mmHg 58%
    16:00 +20°C° 0 mm 6 mps 764 mmHg 64%
    17:00 +19°C° 0 mm 6 mps 764 mmHg 69%
    18:00 +17°C° 0 mm 6 mps 764 mmHg 74%
    19:00 +16°C° 0 mm 5 mps 764 mmHg 80%
    20:00 +15°C° 0 mm 5 mps 765 mmHg 85%
    21:00 +15°C° 0 mm 5 mps 765 mmHg 86%
    22:00 +15°C° 0 mm 5 mps 765 mmHg 87%
    23:00 +14°C° 0 mm 5 mps 765 mmHg 88%
    Show more